Location: São Paulo
(23.5507°S, 46.6334°W)
Time: 07:27:37
(UTC-03:00)

Vanguard 3 - Pass Details

Date: 17 February 2026
Orbit: 507 x 3205 km, 33.4° (Epoch: 7 March)

Event Time Altitude Azimuth Distance (km) Brightness Sun altitude
Exits shadow 02:34:01 50° 73° (ENE) 1,969 9.0 -41.8°
Drops below altitude 10° 02:44:30 10° 111° (ESE) 4,900 11.7 -40.0°
Sets 02:49:24 0° 114° (ESE) 6,315 12.5 -39.1°
